Regional Weather Roundup
Issued by NWS

Home | Current Version | Previous Version | Graphics & Text | Print | Product List | Glossary On
Versions: 1 2 3 4 5 6 7 8 9 10 11 12 13 14 15 16 17 18 19 20 21 22 23 24 25 26 27 28 29 30 31 32 33 34 35 36 37 38 39 40 41 42 43 44 45 46 47 48 49 50
000
ASUS43 KDMX 240907
RWRIA

WEATHER ROUNDUP FOR IOWA
NATIONAL WEATHER SERVICE DES MOINES IA
400 AM CDT THU JUL 24 2014

NOTE: "FAIR" INDICATES FEW OR NO CLOUDS BELOW 12,000 FEET WITH NO
SIGNIFICANT WEATHER AND/OR OBSTRUCTIONS TO VISIBILITY.

* - THESE STATIONS ARE NOT NWS STATIONS...THUS NOT UNDER NWS
QUALITY CONTROL.  THEY ALSO DO NOT REPORT WEATHER SUCH
AS PRECIPITATION OR FOG.

IAZ001>003-012>014-020>022-031>034-043>046-241000-
   NORTHWEST IOWA

CITY           SKY/WX    TMP DP  RH WIND       PRES   REMARKS
CARROLL *      PTCLDY    55  55 100 CALM      30.16F
CHEROKEE *     CLEAR     61  61 100 CALM      30.16S
DENISON *      CLEAR     63  59  88 E5        30.14S
LE MARS *      CLEAR     63  61  94 CALM      30.15F
ORANGE CITY *  CLEAR     64  57  77 E3        30.16S
SHELDON *      PTCLDY    57  55  94 E3        30.15F
SIOUX CITY     CLEAR     63  61  93 SE6       30.13F
SPENCER        PTCLDY    59  56  89 N6        30.17F
STORM LAKE *   CLEAR     61  59  94 SE3       30.17F
$$

IAZ055>058-069>071-079>083-090>094-241000-
   SOUTHWEST IOWA

CITY           SKY/WX    TMP DP  RH WIND       PRES   REMARKS
ATLANTIC *     CLEAR     59  57  94 N5        30.15F
AUDUBON *      CLEAR     57  55  94 CALM      30.17F
CLARINDA *     CLEAR     63  59  88 CALM      30.16F
COUNCIL BLFS *   N/A     64  63  94 SE7       30.14S
CRESTON *      CLEAR     61  57  88 E3        30.16F
HARLAN  *      CLEAR     59  59 100 CALM      30.18F
LAMONI         CLEAR     62  59  90 N5        30.15F
RED OAK *      CLEAR     66  59  77 SE5       30.15S
SHENANDOAH *   CLEAR     64  61  88 E3        30.15S
$$

IAZ047>049-059>061-072>074-084-241000-
   CENTRAL IOWA

CITY           SKY/WX    TMP DP  RH WIND       PRES   REMARKS
AMES           CLEAR     58  57  97 CALM      30.15F
ANKENY *       CLEAR     59  57  94 CALM      30.15F
CHARITON *     CLEAR     61  57  88 W5        30.16S
DES MOINES     CLEAR     65  60  84 CALM      30.15F
GRINNELL*      PTCLDY    61  57  88 NW3       30.17S
KNOXVILLE *    CLEAR     61  59  94 NW3       30.15S
MARSHALLTOWN   PTCLDY    59  56  89 CALM      30.16S
PELLA *        CLEAR     61  59  94 CALM      30.16F
PERRY *          N/A     57  57 100 CALM      30.16F
$$

IAZ004>006-015-016-023>025-035-036-241000-
   NORTH CENTRAL IOWA

CITY           SKY/WX    TMP DP  RH WIND       PRES   REMARKS
ALGONA *       MOCLDY    57  55  94 NE3       30.17F
CLARION *      CLEAR     55  55 100 CALM      30.16F
ESTHERVILLE    CLEAR     55  53  93 CALM      30.16F
FORT DODGE *   MOCLDY    59  57  94 CALM      30.17F
MASON CITY     CLEAR     53  52  96 CALM      30.18F
FOREST CITY *  CLEAR     54  54 100 CALM      30.17F
IOWA FALLS *     N/A     59  57  94 CALM      30.18S
$$

IAZ007>011-017>019-026>030-037>042-050>054-066-241000-
   NORTHEAST IOWA

CITY           SKY/WX    TMP DP  RH WIND       PRES   REMARKS
CEDAR RAPIDS   MOCLDY    61  56  83 CALM      30.15S
CHARLES CITY * CLEAR     57  55  94 N5        30.17F
CLINTON *      MOCLDY    57  55  94 CALM      30.20S
DECORAH *      CLEAR     57  55  94 CALM      30.16S
DUBUQUE        CLEAR     58  53  84 SE3       30.18S
MONTICELLO *   PTCLDY    59  57  94 CALM      30.17S
OELWEIN *      CLEAR     57  55  94 CALM      30.17S
WATERLOO       CLEAR     56  54  93 NW3       30.15S
$$

IAZ064-065-067-068-078-241000-
   EAST CENTRAL IOWA

CITY           SKY/WX    TMP DP  RH WIND       PRES   REMARKS
DAVENPORT      CLEAR     57  53  86 CALM      30.17R
IOWA CITY      PTCLDY    64  59  83 E3        30.17R
MT. PLEASANT * CLEAR     59  57  94 N5        30.15R
MUSCATINE *    CLEAR     57  55  94 CALM      30.16S
QUAD CITIES    CLEAR     57  53  86 CALM      30.16R
$$

IAZ062-063-075>077-085>089-095>099-241000-
   SOUTHEAST IOWA

CITY           SKY/WX    TMP DP  RH WIND       PRES   REMARKS
BURLINGTON     CLEAR     62  58  86 E6        30.14S
FAIRFIELD *    CLEAR     57  55  94 CALM      30.16R
FORT MADISON * CLEAR     59  59 100 CALM      30.15R
KEOKUK *       CLEAR     59  59 100 CALM      30.13R
OSKALOOSA *      N/A     57  55  94 NW3       30.15S
CENTERVILLE *  CLEAR     55  55 100 NW3       30.17S
OTTUMWA        CLEAR     58  57  97 NW3       30.15S
WASHINGTON *   CLEAR     59  57  94 CALM      30.15S
$$

ABBREVIATIONS USED IN REMARKS
   TC - TEMPERATURES IN CELSIUS
  WCI - WIND CHILL INDEX
   HX - HEAT INDEX
  VSB - VISIBILITY
$$



USA.gov is the U.S. government's official web portal to all federal, state and local government web resources and services.